World > North America > United States > Illinois > Hewittsville

Hourly Hewittsville, IL Regional Weather

Feedback E-mail the Weather

Quick WX

Hewittsville, IL Weather Maps

°F °C°F °C
Hewittsville Weather Map
UTC Time: 8/15/2022, 18:49
Your Time:

Hewittsville, IL Regional Weather

Expires:202208151900;;091812
ASUS43 KLOT 151810
RWRIL 

ILLINOIS REGIONAL WEATHER ROUNDUP
NATIONAL WEATHER SERVICE CHICAGO/ROMEOVILLE IL
100 PM CDT MON AUG 15 2022

NOTE: "FAIR" INDICATES FEW OR NO CLOUDS BELOW 12,000 FEET WITH NO
SIGNIFICANT WEATHER AND/OR OBSTRUCTIONS TO VISIBILITY.

* THESE STATIONS ARE NOT UNDER NWS QUALITY CONTROL. THEY ALSO MAY NOT
  REPORT WEATHER SUCH AS PRECIPITATION OR FOG.


ILZ028>032-037-038-041>044-048-051>054-059>061-151900-
CENTRAL ILLINOIS
  
CITY           SKY/WX    TMP DP  RH WIND       PRES   REMARKS
PONTIAC        MOSUNNY   78  68  69 E7        30.05S HX  81           
BLOOMINGTON    PTSUNNY   75  63  64 NE10      30.06R                  
DECATUR        CLOUDY    75  66  73 NE9       30.03S                  
PEORIA         PTSUNNY   78  63  59 E7        30.05S HX  80           
6HR MIN TEMP:  63; 6HR MAX TEMP:  78;                                

LACON*         PTSUNNY   77  67  70 NE5       30.05S                  
LINCOLN*       PTSUNNY   75  67  74 N6        30.04F                  
SPRINGFIELD    PTSUNNY   76  64  66 N9        30.04F                  
6HR MIN TEMP:  66; 6HR MAX TEMP:  77;                                

TAYLORVILLE    PTSUNNY   75  64  69 N8        30.03F                  
6HR MIN TEMP:  66; 6HR MAX TEMP:  75;                                

$$


SKY/WX - Weather  TMP - Temperature  DP - Dew Point  RH - Humidity
WIND - Wind Direction/Speed PRES - Barometric Pressure VSB - Visibility
WCI - Wind Chill Index E13G22 Wind - East Wind 13 mph/Gusts of 22 mph

Trending Headlines

Hewittsville Radar Loop



Hewittsville Quick Facts


National Two Day Weather Forecast


E-mail the Hewittsville Weather Forecast

Voice your opinion or tell us about page issues...